Location: Maiden
(35.5760°N, 81.2120°W)
Time: 01:16:45
(UTC-04:00)

A-11 Canister half - Pass Details

Date: 08 August 2020
Orbit: 1527 x 1682 km, 47.3° (Epoch: 25 September)

Event Time Altitude Azimuth Distance (km) Brightness Sun altitude
Rises 15:28:08 0° 269° (W) 4,926 12.1 57.2°
Reaches altitude 10° 15:31:31 10° 276° (W) 3,943 11.7 56.6°
Maximum altitude 15:41:11 46° 347° (NNW) 2,134 10.3 54.8°
Drops below altitude 10° 15:50:46 10° 59° (ENE) 3,901 10.9 53.0°
Sets 15:54:06 0° 66° (ENE) 4,871 11.3 52.4°
